Location: Asheville, NC
(35.6000°N, 82.5500°W)
Time: 22:38:48
(UTC-05:00)

XW-2D - Pass Details

Date: 12 January 2018
Orbit: 511 x 530 km, 97.5° (Epoch: 17 January)

Event Time Altitude Azimuth Distance (km) Brightness Sun altitude
Rises 05:37:13 0° 32° (NNE) 2,641 ? -24.5°
Reaches altitude 10° 05:40:01 10° 55° (NE) 1,744 ? -23.9°
Maximum altitude 05:42:21 16° 94° (E) 1,409 ? -23.4°
Drops below altitude 10° 05:44:41 10° 133° (SE) 1,729 ? -23.0°
Sets 05:47:25 0° 155° (SSE) 2,607 ? -22.4°
